{"data":{"norad_id":68345,"epoch":"2026-09-19T23:20:24.480384Z","epoch_age_seconds":93564,"freshness":"FRESH","line1":"1 68345U 26059AA  26262.97250556  .00014273  00000+0  43271-3 0  9991","line2":"2 68345  53.1584 157.8403 0001747  87.6659 272.4544 15.34404657 28032","mean_motion":15.34404657,"eccentricity":0.0001747,"inclination_deg":53.1584,"raan_deg":157.8403,"arg_perigee_deg":87.6659,"mean_anomaly_deg":272.4544,"bstar":0.00043271,"rev_number":2803,"period_min":93.847473248382,"perigee_km":461.49430628485,"apogee_km":463.88449102854,"semimajor_km":6840.8263986567,"source":"CELESTRAK","updated_at":"2026-09-20T09:00:43.889950Z"}}